When you browse on this site, cookies collect data to enhance your experience and personalize the content and advertising you see.
Visit our Privacy Policy to learn more. By continuing to use the site, you agree to this use of cookies and data.
  • In Germany
  • List of Countries
  • For 7 days
  • Water Temperature
  • Weather Map
  • Weather Widgets
  • user-avatar
    Login

    Hourly Weather Ali Bayramli

    Today, 22 August, Thursday

    Time Temperature Precipitation Wind Pressure Humidity
    00:00 +22°C° 0 mm 0 mps 757 mmHg 61%
    01:00 +24°C° 0 mm 1 mps 757 mmHg 61%
    02:00 +24°C° 0 mm 1 mps 757 mmHg 60%
    03:00 +25°C° 0 mm 2 mps 757 mmHg 60%
    04:00 +25°C° 0 mm 1 mps 757 mmHg 58%
    05:00 +26°C° 0 mm 1 mps 757 mmHg 56%
    06:00 +26°C° 0 mm 1 mps 757 mmHg 55%
    07:00 +29°C° 0 mm 1 mps 757 mmHg 46%
    08:00 +31°C° 0 mm 1 mps 757 mmHg 37%
    09:00 +34°C° 0 mm 1 mps 757 mmHg 29%
    10:00 +37°C° 0 mm 2 mps 756 mmHg 24%
    11:00 +38°C° 0 mm 3 mps 756 mmHg 20%
    12:00 +41°C° 0 mm 4 mps 756 mmHg 16%
    13:00 +41°C° 0 mm 5 mps 755 mmHg 16%
    14:00 +41°C° 0 mm 6 mps 755 mmHg 17%
    15:00 +41°C° 0 mm 7 mps 755 mmHg 17%
    16:00 +39°C° 0 mm 6 mps 755 mmHg 21%
    17:00 +36°C° 0 mm 5 mps 755 mmHg 25%
    18:00 +35°C° 0 mm 4 mps 755 mmHg 28%
    19:00 +33°C° 0 mm 4 mps 755 mmHg 35%
    20:00 +30°C° 0 mm 3 mps 755 mmHg 42%
    21:00 +28°C° 0 mm 2 mps 756 mmHg 48%
    22:00 +27°C° 0 mm 2 mps 756 mmHg 51%
    23:00 +26°C° 0 mm 2 mps 756 mmHg 54%

    Tomorrow, 23 August, Friday

    Time Temperature Precipitation Wind Pressure Humidity
    00:00 +26°C° 0 mm 2 mps 756 mmHg 56%
    01:00 +25°C° 0 mm 2 mps 756 mmHg 55%
    02:00 +25°C° 0 mm 2 mps 756 mmHg 53%
    03:00 +25°C° 0 mm 2 mps 756 mmHg 52%
    04:00 +26°C° 0 mm 1 mps 756 mmHg 49%
    05:00 +26°C° 0 mm 1 mps 756 mmHg 46%
    06:00 +27°C° 0 mm 1 mps 756 mmHg 43%
    07:00 +30°C° 0 mm 1 mps 756 mmHg 37%
    08:00 +32°C° 0 mm 1 mps 756 mmHg 30%
    09:00 +33°C° 0 mm 0 mps 756 mmHg 24%
    10:00 +38°C° 0 mm 2 mps 756 mmHg 21%
    11:00 +39°C° 0 mm 3 mps 756 mmHg 18%
    12:00 +42°C° 0 mm 4 mps 756 mmHg 15%
    13:00 +42°C° 0 mm 5 mps 756 mmHg 15%
    14:00 +42°C° 0 mm 6 mps 755 mmHg 15%
    15:00 +43°C° 0 mm 7 mps 755 mmHg 15%
    16:00 +40°C° 0 mm 7 mps 755 mmHg 20%
    17:00 +38°C° 0 mm 6 mps 755 mmHg 25%
    18:00 +35°C° 0 mm 6 mps 755 mmHg 30%
    19:00 +33°C° 0 mm 5 mps 755 mmHg 36%
    20:00 +32°C° 0 mm 4 mps 756 mmHg 41%
    21:00 +29°C° 0 mm 4 mps 756 mmHg 47%
    22:00 +29°C° 0 mm 4 mps 756 mmHg 49%
    23:00 +29°C° 0 mm 4 mps 756 mmHg 51%

    Day after tomorrow, 24 August, Saturday

    Time Temperature Precipitation Wind Pressure Humidity
    00:00 +28°C° 0 mm 4 mps 756 mmHg 53%
    01:00 +28°C° 0 mm 3 mps 756 mmHg 52%
    02:00 +28°C° 0 mm 3 mps 755 mmHg 51%
    03:00 +28°C° 0 mm 3 mps 755 mmHg 49%
    04:00 +28°C° 0 mm 3 mps 755 mmHg 48%
    05:00 +28°C° 0 mm 2 mps 756 mmHg 48%
    06:00 +28°C° 0 mm 2 mps 756 mmHg 47%
    07:00 +30°C° 0 mm 2 mps 756 mmHg 41%
    08:00 +34°C° 0 mm 2 mps 756 mmHg 35%
    09:00 +36°C° 0 mm 2 mps 756 mmHg 29%
    10:00 +38°C° 0 mm 4 mps 756 mmHg 24%
    11:00 +41°C° 0 mm 5 mps 756 mmHg 20%
    12:00 +45°C° 0 mm 7 mps 756 mmHg 15%
    13:00 +44°C° 0 mm 7 mps 755 mmHg 17%
    14:00 +43°C° 0 mm 8 mps 755 mmHg 20%
    15:00 +41°C° 0 mm 8 mps 755 mmHg 22%
    16:00 +39°C° 0 mm 7 mps 755 mmHg 27%
    17:00 +36°C° 0 mm 7 mps 755 mmHg 33%
    18:00 +34°C° 0 mm 6 mps 755 mmHg 38%
    19:00 +32°C° 0 mm 5 mps 756 mmHg 41%
    20:00 +30°C° 0 mm 4 mps 756 mmHg 44%
    21:00 +29°C° 0 mm 3 mps 757 mmHg 47%
    22:00 +29°C° 0 mm 3 mps 757 mmHg 45%
    23:00 +28°C° 0 mm 3 mps 757 mmHg 44%

    25 August, Sunday

    Time Temperature Precipitation Wind Pressure Humidity
    00:00 +28°C° 0 mm 3 mps 756 mmHg 42%
    01:00 +28°C° 0 mm 3 mps 756 mmHg 41%
    02:00 +27°C° 0 mm 3 mps 756 mmHg 40%
    03:00 +27°C° 0 mm 3 mps 756 mmHg 38%
    04:00 +27°C° 0 mm 3 mps 756 mmHg 41%
    05:00 +27°C° 0 mm 3 mps 756 mmHg 44%
    06:00 +27°C° 0 mm 2 mps 757 mmHg 46%
    07:00 +29°C° 0 mm 3 mps 757 mmHg 41%
    08:00 +33°C° 0 mm 3 mps 757 mmHg 35%
    09:00 +35°C° 0 mm 3 mps 757 mmHg 29%
    10:00 +37°C° 0 mm 4 mps 757 mmHg 27%
    11:00 +39°C° 0 mm 5 mps 757 mmHg 24%
    12:00 +40°C° 0 mm 6 mps 756 mmHg 21%
    13:00 +40°C° 0 mm 7 mps 756 mmHg 20%
    14:00 +39°C° 0 mm 7 mps 756 mmHg 20%
    15:00 +39°C° 0 mm 8 mps 756 mmHg 20%
    16:00 +36°C° 0 mm 7 mps 756 mmHg 22%
    17:00 +35°C° 0 mm 6 mps 756 mmHg 25%
    18:00 +33°C° 0 mm 6 mps 756 mmHg 28%
    19:00 +30°C° 0 mm 4 mps 756 mmHg 35%
    20:00 +28°C° 0 mm 3 mps 756 mmHg 42%
    21:00 +26°C° 0 mm 2 mps 756 mmHg 50%
    22:00 +26°C° 0 mm 2 mps 756 mmHg 48%
    23:00 +26°C° 0 mm 2 mps 756 mmHg 46%

    26 August, Monday

    Time Temperature Precipitation Wind Pressure Humidity
    00:00 +26°C° 0 mm 3 mps 756 mmHg 44%
    01:00 +26°C° 0 mm 2 mps 756 mmHg 43%
    02:00 +25°C° 0 mm 2 mps 756 mmHg 42%
    03:00 +25°C° 0 mm 2 mps 756 mmHg 41%
    04:00 +25°C° 0 mm 2 mps 756 mmHg 41%
    05:00 +25°C° 0 mm 1 mps 756 mmHg 42%
    06:00 +25°C° 0 mm 1 mps 757 mmHg 42%
    07:00 +28°C° 0 mm 1 mps 757 mmHg 35%
    08:00 +30°C° 0 mm 1 mps 757 mmHg 29%
    09:00 +32°C° 0 mm 1 mps 757 mmHg 22%
    10:00 +34°C° 0 mm 1 mps 757 mmHg 19%
    11:00 +35°C° 0 mm 1 mps 757 mmHg 16%
    12:00 +37°C° 0 mm 1 mps 757 mmHg 13%
    13:00 +38°C° 0 mm 3 mps 756 mmHg 14%
    14:00 +39°C° 0 mm 5 mps 756 mmHg 14%
    15:00 +40°C° 0 mm 7 mps 756 mmHg 14%
    16:00 +38°C° 0 mm 7 mps 756 mmHg 18%
    17:00 +35°C° 0 mm 7 mps 756 mmHg 21%
    18:00 +33°C° 0 mm 7 mps 756 mmHg 25%
    19:00 +32°C° 0 mm 6 mps 757 mmHg 28%
    20:00 +29°C° 0 mm 5 mps 758 mmHg 31%
    21:00 +28°C° 0 mm 3 mps 758 mmHg 34%
    22:00 +28°C° 0 mm 3 mps 758 mmHg 36%
    23:00 +27°C° 0 mm 2 mps 758 mmHg 39%

    27 August, Tuesday

    Time Temperature Precipitation Wind Pressure Humidity
    00:00 +27°C° 0 mm 1 mps 758 mmHg 41%
    01:00 +26°C° 0.1 mm 1 mps 758 mmHg 44%
    02:00 +25°C° 0.1 mm 1 mps 758 mmHg 48%
    03:00 +24°C° 0.1 mm 1 mps 758 mmHg 51%
    04:00 +24°C° 0 mm 1 mps 758 mmHg 50%
    05:00 +25°C° 0 mm 1 mps 759 mmHg 49%
    06:00 +25°C° 0 mm 1 mps 759 mmHg 47%
    07:00 +28°C° 0 mm 1 mps 759 mmHg 41%
    08:00 +30°C° 0 mm 2 mps 759 mmHg 35%
    09:00 +32°C° 0 mm 2 mps 759 mmHg 29%
    10:00 +35°C° 0 mm 3 mps 759 mmHg 25%
    11:00 +37°C° 0 mm 5 mps 759 mmHg 22%
    12:00 +40°C° 0 mm 7 mps 759 mmHg 18%
    13:00 +39°C° 0 mm 8 mps 759 mmHg 18%
    14:00 +39°C° 0 mm 10 mps 759 mmHg 18%
    15:00 +39°C° 0 mm 11 mps 759 mmHg 18%
    16:00 +37°C° 0 mm 11 mps 759 mmHg 20%
    17:00 +36°C° 0 mm 11 mps 759 mmHg 23%
    18:00 +33°C° 0 mm 11 mps 759 mmHg 25%
    19:00 +32°C° 0 mm 11 mps 760 mmHg 27%
    20:00 +32°C° 0 mm 11 mps 760 mmHg 28%
    21:00 +31°C° 0 mm 12 mps 760 mmHg 30%
    22:00 +29°C° 0 mm 11 mps 761 mmHg 32%
    23:00 +29°C° 0 mm 10 mps 761 mmHg 34%
    Show more